カタログに戻る

SOLRAD 7B

運用中科学LEO
NORAD 1291·PAYLOAD·🇺🇸 United States

打ち上げ Mar 9, 1965 から Vandenberg Space Force Base

Loading…

次のパス (今後24時間)

TLE

最新Source: Space-Track

元期: Sep 13, 2026, 19:25 UTC

1 01291U 65016D   26256.80966688 -.00000033  00000-0  14285-4 0  9994
2 01291  70.0794  47.8483 0021111 357.5087   2.5910 13.94984320129065

AllMySatでSOLRAD 7Bをリアルタイム追跡

Download on the App Store